Domov               UVHVVR             MKGP            O straneh              
ZDRAVSTVENO VARSTVO RASTLIN
  MREŽA AGROMET. POSTAJ
 ► PROGNOSTIČNA OBVESTILA
AGROMETEOROLOŠKI PODATKI -
ARSO
OBVLADOVANJE TVEGANJ ZARADI
NEUGODNIH VREMENSKIH RAZMER
  ► NARAVNE NESREČE
  ► SUŠA/MOČA
  ► NAMAKANJE
  ► ŽLED (gozdarstvo)
KARTOGRAFSKI PRIKAZI
SPLETNE POVEZAVE
PROJEKTI IN PUBLIKACIJE

AGROMETEOROLOŠKA MREŽA: VREMENSKE POSTAJE IN FENOLOŠKA OPAZOVANJA

Pregled podatkov za lokacijo Pohorski dvor, meteorološka postaja 27262

Pregled senzorjev na lokaciji

ID Ime Zadnja
vrednost
Datum
zadnje
spremembe
Tip
senzorja
959 Relativna vlaga 2 m (% RH) 93,22 % RH 14.12.2017 06:46 Generic 0 - 100 %
960 Omočenost lista (U) 2,93 U 14.12.2017 06:46 A730WET
961 Padavine (mm) 0 mm 14.12.2017 06:45 Generic
963 Temperatura 2 m (°C) 0,32 °C 14.12.2017 06:46 Generic -40 - +60 °C

Pregled podatkov zadnjih 24 ur

Zap.
št.
Datum in čas Pohorski dvor
Omočenost
lista
Padavine Relativna
vlaga
2
m
Temperatura
2
m
0 14.12.2017 07:00 2,93 0 93,22 0,32
1 14.12.2017 06:30 2,5 0 92,8 0,24
2 14.12.2017 06:00 2,77 0 92,51 0,37
3 14.12.2017 05:30 3,2 0 93,11 0,59
4 14.12.2017 05:00 3,13 0 93 0,17
5 14.12.2017 04:30 3,03 0 92,46 0,12
6 14.12.2017 04:00 2,87 0 92,94 0,24
7 14.12.2017 03:30 3,67 0 92,99 0,38
8 14.12.2017 03:00 2,8 0 93,46 -0,96
9 14.12.2017 02:30 1 0 93,27 -1,43
10 14.12.2017 02:00 1,27 0 93,06 -1,48
11 14.12.2017 01:30 2,07 0 92,83 -1,7
12 14.12.2017 01:00 2,27 0 92,42 -1,43
13 14.12.2017 00:30 2,7 0 92,2 -1,61
14 14.12.2017 00:00 3 0 91,54 -1,31
15 13.12.2017 23:30 2,17 0 90,94 -0,61
16 13.12.2017 23:00 8,87 0 90,47 -0,36
17 13.12.2017 22:30 4,27 0 89,5 -0,11
18 13.12.2017 22:00 2,77 0 88,59 0,46
19 13.12.2017 21:30 1,37 0 86,4 0,88
20 13.12.2017 21:00 1 0 84,59 1,24
21 13.12.2017 20:30 0,83 0 83,08 1,11
22 13.12.2017 20:00 0,13 0 80,26 1,02
23 13.12.2017 19:30 0 0 77,5 1,6
24 13.12.2017 19:00 0 0 77,58 1,62
25 13.12.2017 18:30 0 0 75,93 1,67
26 13.12.2017 18:00 0 0 74,88 1,91
27 13.12.2017 17:30 0 0 76,7 1,66
28 13.12.2017 17:00 0 0 73,26 2,08
29 13.12.2017 16:30 0 0 75,74 2,33
30 13.12.2017 16:00 0 0 79,13 2,55
31 13.12.2017 15:30 0 0 74,83 3,13
32 13.12.2017 15:00 0 0 73,84 3,77
33 13.12.2017 14:30 0 0 78,1 3,71
34 13.12.2017 14:00 0 0 81,86 3,89
35 13.12.2017 13:30 0 0 84,74 3,79
36 13.12.2017 13:00 0 0 86,43 3,94
37 13.12.2017 12:30 0 0 86,45 3,55
38 13.12.2017 12:00 0 0 92,23 3,22
39 13.12.2017 11:30 0 0 93,42 2,9
40 13.12.2017 11:00 1,17 0 93,45 2,36
41 13.12.2017 10:30 6,23 0 93,4 1,95
42 13.12.2017 10:00 8,9 0,2 93,39 1,57
43 13.12.2017 09:30 7,13 0,4 93,16 1,55
44 13.12.2017 09:00 9,53 0,2 93,29 1,64
45 13.12.2017 08:30 10 0,2 93,7 1,15
46 13.12.2017 08:00 10 0 93,44 1,07
47 13.12.2017 07:30 10 0,2 93,27 1,15
© 2011 Ministrstvo za kmetijstvo, gozdarstvo in prehrano. Vse pravice pridržane.